Total_Precipitation_Accumulation
0.00 0.00 0.00 0.00 0.04 0.13 0.25 0.69 0.64 0.48 0.22 0.16 0.19 0.22 0.22 0.26 0.24 0.19 0.17 0.18 0.09 0.05
0.00 0.00 0.00 0.00 0.02 0.17 0.25 0.41 0.53 0.60 0.50 0.35 0.30 0.32 0.34 0.34 0.38 0.32 0.26 0.21 0.17 0.11
0.00 0.00 0.00 0.00 0.00 0.05 0.12 0.26 0.36 0.52 0.54 0.49 0.42 0.37 0.34 0.30 0.30 0.32 0.25 0.16 0.10 0.06
0.00 0.00 0.00 0.00 0.00 0.00 0.02 0.13 0.28 0.38 0.53 0.49 0.35 0.31 0.32 0.26 0.17 0.14 0.16 0.09 0.04 0.02
0.00 0.00 0.00 0.00 0.00 0.00 0.00 0.02 0.10 0.19 0.36 0.47 0.38 0.23 0.15 0.14 0.11 0.08 0.06 0.04 0.02 0.00
0.00 0.00 0.00 0.00 0.00 0.00 0.00 0.00 0.00 0.01 0.06 0.15 0.20 0.22 0.09 0.04 0.01 0.00 0.00 0.01 0.01 0.00
0.00 0.00 0.00 0.00 0.00 0.00 0.00 0.00 0.00 0.00 0.01 0.01 0.01 0.04 0.02 0.00 0.00 0.00 0.01 0.00 0.00 0.00
0.00 0.00 0.00 0.00 0.00 0.00 0.00 0.00 0.00 0.00 0.00 0.00 0.00 0.00 0.00 0.00 0.00 0.00 0.00 0.00 0.00 0.00
0.00 0.00 0.00 0.00 0.00 0.00 0.00 0.00 0.00 0.00 0.00 0.00 0.00 0.00 0.00 0.00 0.00 0.00 0.00 0.01 0.02 0.04
0.00 0.00 0.00 0.00 0.00 0.00 0.00 0.00 0.00 0.00 0.00 0.00 0.00 0.02 0.01 0.01 0.01 0.03 0.04 0.04 0.05 0.06
0.00 0.00 0.00 0.00 0.00 0.00 0.00 0.00 0.01 0.01 0.01 0.01 0.02 0.05 0.03 0.03 0.02 0.04 0.05 0.06 0.07 0.09
0.00 0.00 0.00 0.00 0.00 0.01 0.01 0.02 0.02 0.02 0.03 0.03 0.04 0.07 0.05 0.03 0.01 0.04 0.08 0.11 0.15 0.16
0.06 0.01 0.00 0.00 0.00 0.01 0.02 0.02 0.03 0.04 0.05 0.06 0.03 0.07 0.05 0.04 0.01 0.05 0.10 0.14 0.23 0.28
0.08 0.06 0.02 0.00 0.02 0.02 0.04 0.03 0.04 0.05 0.03 0.03 0.05 0.10 0.09 0.07 0.02 0.04 0.08 0.14 0.16 0.15